SKK020 DXXX-DGAA

Flight info

Callsign SKK020
Flight time 0h 20m
Altitude 14000
Route KETAT2S KETAT UL433 EREKA EREKA1B
Aircraft B738/M-SDE2E3FGHIRWXY/LB1

Departure

Time 2026-04-21 15:05
Airport Lomé–Tokoin International Airport (DXXX)

Arrival

Time 2026-04-21 15:25
Airport Kotoka International Airport (DGAA)
Time Latitude Longitude Altitude Speed Heading
2026-04-21 14:22 6.16559 1.25077 77 ft 0 kts 309°
2026-04-21 15:00 6.16560 1.25076 77 ft 0 kts 325°
2026-04-21 15:00 6.16562 1.25076 77 ft 0 kts 359°
2026-04-21 15:00 6.16567 1.25080 77 ft 2 kts 46°
2026-04-21 15:01 6.16597 1.25136 77 ft 14 kts 66°
2026-04-21 15:01 6.16632 1.25224 76 ft 13 kts 48°
2026-04-21 15:01 6.16693 1.25282 77 ft 11 kts 47°
2026-04-21 15:01 6.16755 1.25344 77 ft 16 kts 40°
2026-04-21 15:02 6.16854 1.25424 77 ft 17 kts 38°
2026-04-21 15:02 6.16949 1.25499 77 ft 17 kts 38°
2026-04-21 15:02 6.17041 1.25574 76 ft 16 kts 39°
2026-04-21 15:02 6.17129 1.25643 77 ft 15 kts 38°
2026-04-21 15:03 6.17211 1.25707 76 ft 15 kts 38°
2026-04-21 15:03 6.17288 1.25773 75 ft 9 kts 55°
2026-04-21 15:03 6.17268 1.25835 73 ft 10 kts 128°
2026-04-21 15:03 6.17215 1.25892 70 ft 11 kts 155°
2026-04-21 15:04 6.17143 1.25872 70 ft 12 kts 218°
2026-04-21 15:04 6.16922 1.25696 73 ft 73 kts 218°
2026-04-21 15:04 6.16358 1.25246 74 ft 131 kts 217°
2026-04-21 15:04 6.15547 1.24595 300 ft 157 kts 217°
2026-04-21 15:05 6.14677 1.24059 1089 ft 141 kts 191°
2026-04-21 15:05 6.12729 1.23462 2098 ft 164 kts 212°
2026-04-21 15:05 6.11743 1.22835 2599 ft 176 kts 208°
2026-04-21 15:06 6.10597 1.22238 3049 ft 195 kts 205°
2026-04-21 15:06 6.09371 1.21507 3512 ft 216 kts 224°
2026-04-21 15:06 6.08635 1.20147 3996 ft 236 kts 260°
2026-04-21 15:06 6.08556 1.18472 4589 ft 250 kts 271°
2026-04-21 15:07 6.08523 1.16664 5156 ft 268 kts 269°
2026-04-21 15:07 6.08385 1.14745 5744 ft 283 kts 266°
2026-04-21 15:07 6.08170 1.12745 6484 ft 292 kts 265°
2026-04-21 15:07 6.07938 1.10717 7253 ft 298 kts 265°
2026-04-21 15:08 6.07699 1.08625 7947 ft 307 kts 264°
2026-04-21 15:08 6.07364 1.06475 8676 ft 315 kts 259°
2026-04-21 15:08 6.06922 1.04335 9438 ft 320 kts 258°
2026-04-21 15:08 6.06446 1.02144 10181 ft 326 kts 258°
2026-04-21 15:09 6.05964 0.99869 10706 ft 341 kts 258°
2026-04-21 15:09 6.05474 0.97471 11188 ft 357 kts 259°
2026-04-21 15:09 6.04982 0.95003 11648 ft 371 kts 259°
2026-04-21 15:09 6.04470 0.92412 11752 ft 380 kts 259°
2026-04-21 15:10 6.03956 0.89805 11763 ft 382 kts 259°
2026-04-21 15:10 6.03442 0.87197 11769 ft 380 kts 259°
2026-04-21 15:10 6.02924 0.84572 11775 ft 383 kts 259°
2026-04-21 15:10 6.02409 0.81971 11754 ft 382 kts 259°
2026-04-21 15:11 6.01894 0.79370 11761 ft 380 kts 259°
2026-04-21 15:11 6.01377 0.76758 11752 ft 381 kts 259°
2026-04-21 15:11 6.00864 0.74161 11777 ft 379 kts 259°
2026-04-21 15:11 6.00350 0.71566 11755 ft 381 kts 259°
2026-04-21 15:12 5.99834 0.68960 11750 ft 379 kts 259°
2026-04-21 15:12 5.99317 0.66349 11769 ft 381 kts 259°
2026-04-21 15:12 5.98799 0.63736 11751 ft 379 kts 259°
2026-04-21 15:12 5.98286 0.61141 11762 ft 380 kts 259°
2026-04-21 15:13 5.97942 0.59403 11760 ft 380 kts 259°
2026-04-21 15:13 5.97257 0.55937 11755 ft 380 kts 259°
2026-04-21 15:13 5.96738 0.53322 11774 ft 382 kts 259°
2026-04-21 15:13 5.96224 0.50730 11753 ft 379 kts 259°
2026-04-21 15:14 5.95710 0.48139 11745 ft 380 kts 259°
2026-04-21 15:14 5.95193 0.45530 11758 ft 380 kts 259°
2026-04-21 15:14 5.94685 0.42973 11755 ft 367 kts 259°
2026-04-21 15:14 5.94197 0.40520 11725 ft 350 kts 259°
2026-04-21 15:15 5.93728 0.38160 11486 ft 343 kts 259°
2026-04-21 15:15 5.93261 0.35807 11113 ft 341 kts 259°
2026-04-21 15:15 5.92796 0.33483 10648 ft 342 kts 259°
2026-04-21 15:15 5.92322 0.31137 10178 ft 343 kts 259°
2026-04-21 15:16 5.91855 0.28822 9896 ft 336 kts 259°
2026-04-21 15:16 5.91402 0.26561 9719 ft 327 kts 259°
2026-04-21 15:16 5.90956 0.24324 9317 ft 327 kts 259°
2026-04-21 15:16 5.90512 0.22093 8901 ft 327 kts 259°
2026-04-21 15:17 5.90067 0.19856 8492 ft 327 kts 259°
2026-04-21 15:17 5.89625 0.17626 8084 ft 326 kts 259°
2026-04-21 15:17 5.89176 0.15371 7681 ft 325 kts 259°
2026-04-21 15:17 5.88738 0.13161 7272 ft 323 kts 259°
2026-04-21 15:18 5.88303 0.10969 6871 ft 318 kts 259°
2026-04-21 15:18 5.87875 0.08822 6487 ft 310 kts 259°
2026-04-21 15:18 5.87461 0.06745 6107 ft 302 kts 259°
2026-04-21 15:18 5.87055 0.04702 5739 ft 295 kts 259°
2026-04-21 15:19 5.86657 0.02695 5363 ft 288 kts 259°
2026-04-21 15:19 5.86269 0.00740 5000 ft 282 kts 259°
2026-04-21 15:19 5.85891 -0.01151 4661 ft 275 kts 259°
2026-04-21 15:19 5.85518 -0.03028 4323 ft 273 kts 259°
2026-04-21 15:20 5.85115 -0.04871 3980 ft 270 kts 254°
2026-04-21 15:20 5.84369 -0.06557 3823 ft 259 kts 233°
2026-04-21 15:20 5.83034 -0.07709 3675 ft 247 kts 207°
2026-04-21 15:20 5.81451 -0.08274 3544 ft 235 kts 194°
2026-04-21 15:21 5.79905 -0.08762 3333 ft 231 kts 199°
2026-04-21 15:21 5.78421 -0.09374 3099 ft 227 kts 203°
2026-04-21 15:21 5.76974 -0.10004 2874 ft 224 kts 201°
2026-04-21 15:21 5.75554 -0.10580 2717 ft 217 kts 201°
2026-04-21 15:22 5.74166 -0.11136 2536 ft 211 kts 201°
2026-04-21 15:22 5.72817 -0.11693 2335 ft 205 kts 201°
2026-04-21 15:22 5.71521 -0.12230 2172 ft 197 kts 201°
2026-04-21 15:22 5.70257 -0.12746 1947 ft 193 kts 201°
2026-04-21 15:23 5.69040 -0.13236 1717 ft 181 kts 201°
2026-04-21 15:23 5.67914 -0.13699 1477 ft 168 kts 201°
2026-04-21 15:23 5.66871 -0.14128 1280 ft 155 kts 201°
2026-04-21 15:23 5.65900 -0.14527 1082 ft 146 kts 201°
2026-04-21 15:24 5.64965 -0.14911 894 ft 143 kts 201°
2026-04-21 15:24 5.64058 -0.15279 733 ft 141 kts 200°
2026-04-21 15:24 5.63140 -0.15642 551 ft 141 kts 201°
2026-04-21 15:24 5.62220 -0.16021 360 ft 144 kts 200°
2026-04-21 15:25 5.61297 -0.16401 219 ft 138 kts 201°
2026-04-21 15:25 5.60457 -0.16746 214 ft 110 kts 202°
2026-04-21 15:25 5.60002 -0.16937 207 ft 50 kts 213°
2026-04-21 15:25 5.59819 -0.17146 207 ft 9 kts 260°
2026-04-21 15:26 5.59837 -0.17186 208 ft 5 kts 312°
2026-04-21 15:26 5.59868 -0.17198 208 ft 5 kts
2026-04-21 15:26 5.59933 -0.17172 208 ft 11 kts 21°
2026-04-21 15:26 5.60005 -0.17172 208 ft 10 kts 315°
2026-04-21 15:27 5.60035 -0.17232 208 ft 9 kts 294°
2026-04-21 15:27 5.60042 -0.17249 208 ft 0 kts 291°